Location: Unspecified
(43.4354°N, 0.0000°E)
Time: 08:32:47
(UTC+00:00)

Transit 2A - Pass Details

Date: 19 June 2019
Orbit: 595 x 964 km, 66.7° (Epoch: 24 July)

Event Time Altitude Azimuth Distance (km) Brightness Sun altitude
Rises 09:08:25 0° 331° (NNW) 3,484 9.1 49.4°
Reaches altitude 10° 09:11:08 10° 338° (NNW) 2,487 8.5 49.8°
Maximum altitude 09:16:38 47° 51° (NE) 1,046 7.8 50.8°
Drops below altitude 10° 09:21:34 10° 125° (SE) 2,230 9.2 51.6°
Sets 09:23:53 0° 132° (SE) 3,091 9.7 52.0°
